Weather History for Hereford, TX

Change the Weather History Date:

Monday, April 1, 2013

  Actual Average (KAMA) Record (KAMA)
Temperature  
Mean Temperature 52 °F 52 °F  
Max Temperature 68 °F 67 °F 92 °F (1946)
Min Temperature 35 °F 37 °F 20 °F (1948)
Degree Days  
Heating Degree Days 13 13  
Month to date heating degree days 13  
Since 1 July heating degree days 3822  
Cooling Degree Days 0 0  
Month to date cooling degree days 0  
Year to date cooling degree days 2  
Growing Degree Days 2 (Base 50)    
Moisture  
Dew Point 39 °F    
Average Humidity 62    
Maximum Humidity 90    
Minimum Humidity 34    
Precipitation  
Precipitation 0.00 in 0.05 in 1.09 in (1905)
Month to date precipitation 0.05  
Year to date precipitation 2.72  
Snow  
Snow 0.00 in 0.10 in 4.20 in (1988)
Month to date snowfall 0.1  
Since 1 July snowfall 17.0  
Snow Depth -    
Sea Level Pressure  
Sea Level Pressure 30.03 in    
Wind  
Wind Speed 12 mph (East)    
Max Wind Speed 26 mph    
Max Gust Speed 34 mph    
Visibility 10 miles    
Events Thunderstorm    
T = Trace of Precipitation, MM = Missing Value Source: NWS Daily Summary

Daily Weather History Graph

Daily Weather History Graph

Search for Another Location

Airport:

Trip Planner

Search our weather history database for the weather conditions in past years. The results will help you decide how hot, cold, wet, or windy it might be!

Date:

Astronomy

Apr. 01, 2013 Rise Set
Actual Time 7:35 AM CDT 8:10 PM CDT
Civil Twilight 7:10 AM CDT 8:36 PM CDT
Nautical Twilight 6:40 AM CDT 9:06 PM CDT
Astronomical Twilight 6:09 AM CDT 9:36 PM CDT
Moon 1:10 AM CDT (4/1) 11:35 AM CDT (4/1)
Length of Visible Light 13h 25m
Length of Day
12h 34m
Waning Gibbous, 67% of the Moon is Illuminated
Apr 1
Waning Gibbous
Apr 2
Last Quarter
Apr 10
New
Apr 18
First Quarter
Apr 25
Full

Hourly Weather History & Observations

Time (CDT) Temp. Windchill Dew Point Humidity Pressure Visibility Wind Dir Wind Speed Gust Speed Precip Events Conditions
12:15 AM 54.9 °F - 36.3 °F 50% 30.03 in 10.0 mi South 11.5 mph - N/A   Clear
12:35 AM 53.2 °F - 36.9 °F 54% 30.03 in 10.0 mi South 11.5 mph - N/A   Clear
12:55 AM 51.4 °F - 37.4 °F 59% 30.03 in 10.0 mi South 9.2 mph - N/A   Clear
1:15 AM 50.4 °F - 37.8 °F 62% 30.03 in 10.0 mi South 9.2 mph - N/A   Clear
1:35 AM 50.0 °F - 38.3 °F 64% 30.03 in 10.0 mi South 9.2 mph - N/A   Clear
1:55 AM 49.6 °F - 38.5 °F 65% 30.03 in 10.0 mi South 8.1 mph - N/A   Clear
2:15 AM 48.2 °F - 38.3 °F 69% 30.03 in 10.0 mi South 8.1 mph - N/A   Clear
2:35 AM 48.2 °F - 38.3 °F 69% 30.02 in 10.0 mi South 9.2 mph - N/A   Clear
2:55 AM 47.5 °F - 38.1 °F 70% 30.02 in 10.0 mi SSW 8.1 mph - N/A   Clear
3:15 AM 46.0 °F 41.4 °F 37.8 °F 73% 30.02 in 10.0 mi SSW 9.2 mph - N/A   Clear
3:35 AM 46.8 °F - 38.5 °F 73% 30.02 in 10.0 mi SSW 9.2 mph - N/A   Clear
4:15 AM 46.4 °F 41.9 °F 37.8 °F 72% 30.02 in 10.0 mi SSW 9.2 mph - N/A   Clear
4:35 AM 45.7 °F 41.0 °F 37.4 °F 73% 30.02 in 10.0 mi SSW 9.2 mph - N/A   Clear
4:55 AM 45.3 °F 41.6 °F 37.4 °F 74% 30.02 in 10.0 mi SSW 6.9 mph - N/A   Clear
5:15 AM 45.9 °F 42.3 °F 37.8 °F 73% 30.01 in 10.0 mi SSW 6.9 mph - N/A   Clear
5:35 AM 45.7 °F 42.7 °F 37.6 °F 73% 30.02 in 10.0 mi SSW 5.8 mph - N/A   Clear
5:55 AM 45.5 °F 41.3 °F 37.6 °F 74% 30.02 in 10.0 mi SSW 8.1 mph - N/A   Clear
6:15 AM 43.7 °F 39.1 °F 37.4 °F 78% 30.02 in 10.0 mi South 8.1 mph - N/A   Clear
6:35 AM 44.6 °F 40.7 °F 37.8 °F 77% 30.02 in 10.0 mi SSW 6.9 mph - N/A   Clear
6:55 AM 45.0 °F 41.2 °F 38.3 °F 77% 30.03 in 10.0 mi SSW 6.9 mph - N/A   Clear
7:15 AM 45.5 °F 41.3 °F 38.8 °F 78% 30.04 in 10.0 mi SSW 8.1 mph - N/A   Clear
7:35 AM 45.7 °F 42.0 °F 39.2 °F 78% 30.03 in 10.0 mi SSW 6.9 mph - N/A   Clear
7:55 AM 46.8 °F - 40.1 °F 78% 30.03 in 10.0 mi SSW 8.1 mph - N/A   Clear
8:15 AM 49.3 °F - 41.0 °F 73% 30.04 in 10.0 mi SSW 9.2 mph - N/A   Clear
8:35 AM 50.9 °F - 41.2 °F 69% 30.04 in 10.0 mi SW 6.9 mph - N/A   Clear
8:55 AM 53.4 °F - 42.3 °F 66% 30.04 in 10.0 mi SSW 8.1 mph - N/A   Clear
9:15 AM 56.1 °F - 42.8 °F 61% 30.05 in 10.0 mi SW 12.7 mph 18.4 mph N/A   Clear
9:35 AM 58.5 °F - 44.1 °F 59% 30.05 in 10.0 mi SSW 18.4 mph 24.2 mph N/A   Clear
9:55 AM 60.1 °F - 44.8 °F 57% 30.07 in 10.0 mi WSW 8.1 mph 23.0 mph N/A   Clear
10:15 AM 60.3 °F - 44.4 °F 56% 30.09 in 10.0 mi North 12.7 mph 18.4 mph N/A   Clear
10:35 AM 59.2 °F - 43.7 °F 57% 30.09 in 10.0 mi North 4.6 mph - N/A   Clear
10:55 AM 60.8 °F - 44.1 °F 54% 30.08 in 10.0 mi Calm Calm - N/A   Clear
11:15 AM 63.1 °F - 44.4 °F 50% 30.07 in 10.0 mi ENE 8.1 mph - N/A Thunderstorm Scattered Clouds
11:35 AM 63.9 °F - 44.8 °F 50% 30.07 in 10.0 mi ESE 3.5 mph - N/A   Clear
11:55 AM 64.0 °F - 44.6 °F 49% 30.07 in 10.0 mi Calm Calm - N/A   Clear
12:15 PM 66.2 °F - 45.0 °F 46% 30.07 in 10.0 mi ESE 4.6 mph - N/A   Clear
12:35 PM 65.7 °F - 38.7 °F 37% 30.07 in 10.0 mi NNE 18.4 mph 21.9 mph N/A   Clear
12:55 PM 64.0 °F - 38.3 °F 39% 30.07 in 10.0 mi NNE 17.3 mph 23.0 mph N/A   Clear
1:15 PM 65.3 °F - 38.8 °F 38% 30.06 in 10.0 mi NNE 18.4 mph - N/A   Clear
1:35 PM 65.5 °F - 38.1 °F 36% 30.05 in 10.0 mi NNE 18.4 mph - N/A   Clear
2:15 PM 65.8 °F - 39.2 °F 38% 30.03 in 10.0 mi NE 17.3 mph 24.2 mph N/A   Clear
2:35 PM 67.1 °F - 39.2 °F 36% 30.02 in 10.0 mi NE 17.3 mph 25.3 mph N/A   Clear
3:15 PM 68.0 °F - 39.4 °F 35% 30.00 in 10.0 mi NE 17.3 mph 26.5 mph N/A   Clear
3:35 PM 68.4 °F - 38.7 °F 34% 29.99 in 10.0 mi NNE 23.0 mph 26.5 mph N/A   Clear
3:55 PM 68.7 °F - 39.4 °F 34% 29.98 in 10.0 mi NE 20.7 mph 26.5 mph N/A   Clear
4:15 PM 68.4 °F - 39.6 °F 35% 29.98 in 10.0 mi NE 21.9 mph 27.6 mph N/A   Clear
4:35 PM 68.0 °F - 39.9 °F 36% 29.98 in 10.0 mi NE 20.7 mph 29.9 mph N/A   Clear
4:55 PM 67.1 °F - 40.1 °F 37% 29.98 in 10.0 mi NE 19.6 mph 31.1 mph N/A   Clear
5:15 PM 65.3 °F - 40.3 °F 40% 29.98 in 10.0 mi NE 25.3 mph 29.9 mph N/A   Clear
5:35 PM 61.5 °F - 39.6 °F 44% 29.97 in 10.0 mi NE 26.5 mph 34.5 mph N/A   Clear
5:55 PM 59.9 °F - 39.0 °F 46% 29.96 in 10.0 mi NE 25.3 mph 32.2 mph N/A   Clear
6:15 PM 56.5 °F - 37.6 °F 49% 29.96 in 10.0 mi NE 21.9 mph 33.4 mph N/A   Clear
6:35 PM 54.0 °F - 36.9 °F 52% 29.96 in 10.0 mi NE 23.0 mph 28.8 mph N/A   Clear
6:55 PM 53.1 °F - 37.4 °F 55% 29.97 in 10.0 mi NE 19.6 mph 25.3 mph N/A   Clear
7:15 PM 52.0 °F - 39.7 °F 63% 29.98 in 10.0 mi ENE 19.6 mph 25.3 mph N/A   Clear
7:35 PM 49.1 °F - 38.5 °F 67% 29.98 in 10.0 mi ENE 20.7 mph 24.2 mph N/A   Clear
7:55 PM 46.8 °F - 37.0 °F 69% 29.99 in 10.0 mi NE 19.6 mph 27.6 mph N/A   Clear
8:15 PM 44.8 °F 37.4 °F 36.5 °F 73% 29.99 in 10.0 mi ENE 17.3 mph 25.3 mph N/A   Scattered Clouds
8:35 PM 43.7 °F 35.4 °F 35.6 °F 73% 30.00 in 10.0 mi NE 19.6 mph 23.0 mph N/A   Mostly Cloudy
8:55 PM 42.4 °F 34.1 °F 34.7 °F 74% 30.00 in 10.0 mi NE 18.4 mph 24.2 mph N/A   Overcast
9:15 PM 41.7 °F 33.7 °F 34.2 °F 75% 30.02 in 10.0 mi NE 16.1 mph 21.9 mph N/A   Overcast
9:35 PM 40.3 °F 31.6 °F 33.8 °F 78% 30.02 in 10.0 mi NE 17.3 mph 23.0 mph N/A   Overcast
9:55 PM 39.6 °F 30.6 °F 33.8 °F 80% 30.04 in 7.0 mi NNE 17.3 mph - N/A   Overcast
10:15 PM 38.7 °F 29.5 °F 33.8 °F 83% 30.05 in 10.0 mi NE 17.3 mph 20.7 mph N/A   Overcast
10:35 PM 37.9 °F 28.5 °F 34.0 °F 86% 30.06 in 7.0 mi NE 17.3 mph - N/A   Overcast
10:55 PM 37.4 °F 27.2 °F 33.8 °F 87% 30.06 in 5.0 mi NE 19.6 mph - N/A   Overcast
11:15 PM 36.7 °F 26.6 °F 33.8 °F 89% 30.06 in 5.0 mi NE 18.4 mph - N/A   Overcast
11:35 PM 36.5 °F 26.3 °F 32.9 °F 87% 30.07 in 7.0 mi NNE 18.4 mph 23.0 mph N/A   Overcast
11:55 PM 35.8 °F 25.4 °F 33.1 °F 90% 30.07 in 5.0 mi NE 18.4 mph 21.9 mph N/A   Overcast